COSMOS 2434 (721)

Last updated on Fri Jul 10 2026 00:03:26 GMT+0000 (Coordinated Universal Time)

1 32393U 07065A 26189.88237226 .00000126 00000+0 00000+0 0 9999 2 32393 64.3197 191.1839 0001274 326.7883 215.1474 2.13101412144238
UTC large
Height (km)
Speed (km/s)
/
Latitude / Longitude
Inclination (degrees)
Orbital Period (minutes)
Azimuth
Elevation
Range (km)
Doppler Factor

Next 0 passes for location: London (51.5072 / 0.1276)

No passes found over London.
COSMOS 2434 (721)